HST 1 20580U 90037B 26255.93577969 .00005307 00000+0 16138-3 0 9995 2 20580 28.4731 200.4311 0001822 46.6900 313.3848 15.31629360802030 POLAR 1 23802U 96013A 26255.84494893 .00000107 00000+0 00000+0 0 9999 2 23802 79.9841 225.9984 6559864 206.0744 95.9850 1.29845769145995 SWAS 1 25560U 98071A 26255.59926017 .00002859 00000+0 18158-3 0 9991 2 25560 69.8982 2.0183 0003270 145.9325 214.2050 15.10082631510464 CXO 1 25867U 99040B 26256.64753562 .00000750 00000+0 00000+0 0 9999 2 25867 57.3946 114.3238 7696465 309.4554 0.6118 0.37808225 17660 XMM-NEWTON 1 25989U 99066A 26257.11030921 .00000050 00000+0 00000+0 0 9995 2 25989 64.0154 281.8333 4649132 63.3176 0.1184 0.50126814 23453 TERRA 1 25994U 99068A 26256.14639719 .00000241 00000+0 57989-4 0 9990 2 25994 97.9372 302.1697 0001483 349.8157 38.9818 14.61159219422452 TIMED 1 26998U 01055B 26255.91651781 .00000870 00000+0 82214-4 0 9998 2 26998 74.0666 58.3510 0001921 236.6347 123.4654 14.95451722343938 CORIOLIS 1 27640U 03001A 26255.99586405 .00000073 00000+0 54863-4 0 9998 2 27640 98.7168 261.5555 0013310 324.0736 35.9544 14.19966035226680 SORCE 1 27651U 03004A 26256.05962657 .00001982 00000+0 15092-3 0 9998 2 27651 39.9900 120.1706 0018312 319.2319 40.7104 15.04101834285135 MOST 1 27843U 03031D 26255.99554473 .00000033 00000+0 35058-4 0 9997 2 27843 98.7081 262.5094 0009922 5.7204 354.4085 14.21337515203182 SCISAT 1 1 27858U 03036A 26256.01144162 .00000440 00000+0 60777-4 0 9990 2 27858 73.9324 356.8319 0006603 30.9389 329.2176 14.81536409244452 SWIFT 1 28485U 04047A 26256.06933045 .00140051 00000+0 68983-3 0 9990 2 28485 20.5509 222.0461 0002318 182.2709 177.7728 15.80336175200729 HINODE (SOLAR-B) 1 29479U 06041A 26256.00434718 .00000387 00000+0 74778-4 0 9994 2 29479 98.0551 270.8678 0017714 14.0579 346.1115 14.68719197 67765 SHIJIAN-6 02A (SJ-6 02A) 1 29505U 06046A 26256.19339159 .00004792 00000+0 24055-3 0 9998 2 29505 97.6284 297.9404 0002925 165.6602 194.4715 15.17788541 85616 SHIJIAN-6 02B (SJ-6 02B) 1 29506U 06046B 26256.18306434 .00000196 00000+0 19853-4 0 9993 2 29506 97.6987 284.6425 0016082 131.0969 229.1647 15.01476714 83948 FGRST (GLAST) 1 33053U 08029A 26255.56525174 .00002511 00000+0 86303-4 0 9990 2 33053 25.5830 317.5889 0007463 278.2452 81.7239 15.24339905 9033 SDO 1 36395U 10005A 26256.15196556 -.00000069 00000+0 00000+0 0 9995 2 36395 34.8329 85.0029 0001672 73.0321 147.1971 1.00274959 60949 CRYOSAT 2 1 36508U 10013A 26256.16143894 .00000056 00000+0 13210-4 0 9995 2 36508 92.0281 298.6662 0002387 84.6576 275.4903 14.51904387870840 X-SAT 1 37389U 11015C 26256.19227736 .00000165 00000+0 87704-4 0 9997 2 37389 98.3618 229.0674 0015291 84.3412 275.9512 14.25228087800218 GCOM-W1 (SHIZUKU) 1 38337U 12025A 26255.78598662 .00000303 00000+0 77308-4 0 9999 2 38337 98.2064 195.0275 0001480 87.1397 301.2109 14.57132513761790 NUSTAR 1 38358U 12031A 26256.16668980 .00015001 00000+0 85319-3 0 9994 2 38358 6.0272 93.8099 0008279 329.0977 261.5186 15.09518379 1308 NEOSSAT 1 39089U 13009D 26256.01367272 .00000084 00000+0 43684-4 0 9991 2 39089 98.4226 73.9880 0010773 351.0829 9.0164 14.35852633709346 BRITE-AUSTRIA 1 39091U 13009F 26256.03814644 .00000097 00000+0 47667-4 0 9995 2 39091 98.4047 73.3313 0009826 344.6583 15.4305 14.36570952709662 IRIS 1 39197U 13033A 26256.04053655 .00000665 00000+0 82021-4 0 9991 2 39197 97.9282 95.0379 0025233 34.2034 326.0800 14.86033459713421 HISAKI (SPRINT-A) 1 39253U 13049A 26255.99148888 .00000116 00000+0 71548-4 0 9990 2 39253 29.7187 133.6032 0136472 8.6123 351.6754 13.55550532643344 CASSIOPE 1 39265U 13055A 26256.16270198 .00035778 -62341-6 35659-3 0 9998 2 39265 80.9135 319.3872 0270033 124.4338 238.2743 15.31422803681100 STSAT-3 1 39422U 13066G 26256.19370433 .00002427 00000+0 18386-3 0 9990 2 39422 97.6314 224.7193 0010804 95.3259 264.9200 15.03172279697424 SWARM B 1 39451U 13067A 26256.10705564 .00002415 00000+0 84444-4 0 9997 2 39451 87.7442 315.6216 0003443 90.2115 269.9529 15.29030969696672 SWARM A 1 39452U 13067B 26256.11336882 .00008562 00000+0 14826-3 0 9997 2 39452 87.3357 23.5703 0002349 99.6300 260.5226 15.50730973719878 SWARM C 1 39453U 13067C 26256.11325715 .00008726 00000+0 15111-3 0 9991 2 39453 87.3361 22.1532 0002354 99.7851 260.3676 15.50730198719839 BRITE-CA1 (TORONTO) 1 40020U 14033L 26255.88597251 .00000446 00000+0 74615-4 0 9992 2 40020 97.9854 23.2560 0078293 357.1933 2.8825 14.72811243655125 OCO 2 1 40059U 14035A 26256.12057720 .00000268 00000+0 69517-4 0 9993 2 40059 98.2064 196.0911 0001667 79.6846 280.4540 14.57088595648852 BRITE-PL2 (HEWELIUSZ) 1 40119U 14049B 26256.13548284 .00001791 00000+0 16967-3 0 9998 2 40119 97.9166 8.8610 0014109 171.7854 188.3599 14.94852360654589 MMS 1 1 40482U 15011A 26256.16668980 -.00001790 00000+0 00000+0 0 9997 2 40482 72.9582 347.7812 8260719 169.3398 273.2235 0.28329937 1410 MMS 2 1 40483U 15011B 26256.16668980 -.00001791 00000+0 00000+0 0 9999 2 40483 72.9628 347.7800 8263558 169.3413 273.2024 0.28329882 1416 MMS 3 1 40484U 15011C 26256.16668980 -.00001791 00000+0 00000+0 0 9990 2 40484 72.9617 347.7919 8261928 169.3522 273.1670 0.28332518 1412 MMS 4 1 40485U 15011D 26256.16668980 -.00001791 00000+0 00000+0 0 9991 2 40485 72.9555 347.7758 8261997 169.3621 273.1630 0.28332510 1419 ASTROSAT 1 40930U 15052A 26256.14839580 .00001415 00000+0 90186-4 0 9996 2 40930 5.9964 242.1440 0008107 214.5635 145.3966 14.82639487592901 DAMPE 1 41173U 15078A 26256.21344491 .00000837 00000+0 30533-4 0 9991 2 41173 97.4591 262.1430 0013317 118.6326 241.6256 15.30972974598019 PISAT 1 41784U 16059B 26255.94051240 .00000648 00000+0 11772-3 0 9998 2 41784 97.8244 252.6561 0027521 286.1650 73.6528 14.69121819532623 HXMT (HUIYAN) 1 42758U 17034A 26255.93021149 .00003505 00000+0 17323-3 0 9991 2 42758 43.0147 54.2180 0031852 339.6618 20.2961 15.19116431511001 FLYING LAPTOP 1 42831U 17042G 26256.22613637 .00001497 00000+0 11968-3 0 9991 2 42831 97.5000 48.6028 0016306 180.2113 179.9107 15.01582931499664 ZHANGHENG 1-01 (CSES-1) 1 43194U 18015C 26256.17271894 .00004827 00000+0 22309-3 0 9995 2 43194 97.6956 63.6269 0013717 335.9446 24.1146 15.20598466478014 SALSAT 1 46495U 20068K 26256.02383088 .00005861 00000+0 19897-3 0 9993 2 46495 97.8880 264.5290 0009351 5.4494 354.6845 15.30897295328795 IXPE 1 49954U 21121A 26256.16668980 .00009536 00000+0 50030-3 0 9996 2 49954 0.2314 11.8318 0007409 330.9682 244.1711 15.10953437 5571 SMILE 1 69123U 26109A 26253.91179029 .00000505 00000+0 00000+0 0 9993 2 69123 70.0136 206.2630 8182473 285.8392 5.3268 0.47510467 355